Track KAISTSAT 4 now! 10-day predictions KAISTSAT 4 is classified as:
1 27945U 03042G 21023.92077419 .00000017 00000-0 12059-4 0 9992 2 27945 98.1200 155.9504 0013170 55.0605 305.1833 14.64908924925366